Wind_Speed
38 38 37 37 37 36 36 36 36 37 37 37 38 38 39 39 39 40 41 42 42 43 44 45 46 47 48 49 50 51 52 54 54 52 53 54 55 56 57 58 59 60 61
39 39 38 37 37 37 37 37 38 38 38 39 39 40 40 40 40 41 42 43 44 44 45 46 47 47 48 50 51 52 53 55 55 54 54 56 57 58 59 59 60 62 63
40 39 39 38 38 38 38 38 38 39 39 40 40 41 41 41 41 42 43 44 45 46 46 47 47 48 50 51 52 53 54 55 56 56 56 58 59 60 60 61 62 63 64
40 40 40 39 39 39 39 39 39 40 40 41 41 42 42 42 42 43 44 45 46 46 47 47 49 50 51 52 53 54 55 56 57 58 58 59 60 61 61 62 62 63 64
41 41 40 40 40 40 40 40 40 40 41 42 42 42 42 43 43 44 44 45 46 47 48 49 50 51 52 53 54 55 57 57 58 59 60 60 60 61 61 62 63 63 64
41 41 40 40 40 40 40 41 41 42 42 42 42 42 43 43 44 44 45 46 46 48 49 50 51 52 53 54 55 57 58 59 59 60 61 61 61 61 62 63 63 64 64
41 40 40 40 40 40 41 41 42 42 42 43 43 43 43 44 44 45 46 47 48 49 50 51 52 53 54 55 56 57 58 59 60 61 61 61 62 62 63 63 64 64 64
41 41 40 40 40 41 41 41 42 43 43 43 43 43 44 44 45 46 47 48 49 50 51 52 53 54 55 56 57 58 59 60 61 62 62 62 63 63 64 65 65 65 64
42 41 41 41 41 42 42 42 42 43 43 43 43 44 44 45 46 47 48 49 50 51 52 53 53 54 55 57 58 59 59 60 61 61 62 62 63 64 65 65 65 65 63
42 41 41 42 42 42 43 43 43 43 44 44 44 45 45 46 47 48 49 50 51 51 52 53 54 55 56 58 59 59 60 60 61 61 62 63 64 64 65 65 64 63 61
42 42 41 42 42 43 43 43 43 44 44 45 45 46 46 47 48 49 49 50 51 51 52 54 55 56 57 58 59 59 60 60 61 62 62 63 64 64 64 64 62 60 58
41 42 42 41 42 42 43 44 44 44 45 45 46 46 47 48 48 49 50 51 51 52 53 55 56 57 58 59 59 60 60 61 62 62 63 63 64 63 63 61 59 57 56
42 42 42 42 42 42 44 44 45 45 45 46 46 46 47 48 49 50 51 51 52 53 54 55 56 57 58 59 59 60 61 62 63 63 63 63 63 62 60 58 56 55 53
42 42 42 42 42 43 43 44 44 44 45 45 46 47 47 48 49 50 51 52 53 54 55 56 57 58 59 59 59 61 62 63 63 63 63 62 61 59 57 55 53 52 49
41 42 42 42 43 43 43 43 43 44 45 46 47 47 48 49 50 51 52 52 53 54 55 56 57 57 58 58 60 61 62 62 62 62 61 60 58 56 54 51 49 47 44
40 41 41 42 42 43 43 43 44 45 45 46 46 47 48 49 50 50 51 52 53 54 55 56 57 57 58 59 60 61 61 61 60 60 59 57 55 52 50 48 46 44 40
40 40 41 41 42 42 43 43 44 45 46 46 47 48 48 49 49 50 51 52 54 55 56 56 57 58 58 60 60 60 59 58 58 57 56 54 51 49 47 45 43 40 37
41 41 41 42 42 43 43 44 45 45 45 46 47 48 48 49 49 51 52 53 54 55 56 57 57 58 59 59 59 57 56 56 55 54 53 51 49 47 45 43 40 37 35
42 42 43 44 43 44 44 44 44 44 45 46 47 48 48 49 50 51 52 53 54 55 56 57 58 58 58 57 56 54 53 53 53 52 50 49 47 44 41 39 37 34 33
42 43 43 43 43 43 43 43 44 45 46 46 47 48 48 49 49 51 52 54 55 56 56 57 58 57 56 55 53 52 52 52 51 50 48 46 44 41 39 37 34 32 30
43 43 42 42 42 42 43 43 44 45 45 46 48 49 49 49 51 52 53 54 55 56 56 57 56 55 54 53 51 50 50 49 48 47 45 43 41 39 36 34 31 29 29
42 42 42 42 42 42 43 43 44 45 46 47 49 49 49 50 52 53 54 55 55 55 56 55 54 53 52 50 49 48 47 46 46 44 42 41 39 36 34 32 29 27 26
41 41 41 42 42 43 43 44 45 46 47 48 49 49 50 51 52 53 53 53 53 54 54 53 51 50 49 48 47 46 45 44 43 42 41 39 36 34 32 29 27 25 24
41 41 42 42 42 42 43 44 45 46 47 48 49 49 50 51 51 51 52 52 52 52 51 50 48 47 46 46 44 44 43 43 42 40 39 37 34 31 29 26 25 23 22
41 41 41 41 42 43 44 45 45 46 46 47 48 49 49 50 50 50 50 50 50 49 48 47 45 45 44 44 43 43 42 41 40 39 36 34 31 29 26 24 23 21 20
40 40 41 41 42 43 44 44 44 45 46 47 47 48 49 48 48 49 49 48 47 46 45 44 43 42 42 42 42 41 40 39 38 36 34 30 28 26 25 23 21 20 19
Wind_Direction
271 273 275 276 277 278 280 282 283 284 286 288 289 291 292 294 296 297 299 300 301 301 302 303 304 304 305 306 306 306 306 306 306 306 305 304 303 303 302 302 301 301 300
272 273 274 276 277 278 280 281 282 284 286 288 289 291 292 293 295 297 298 300 300 301 302 302 303 304 305 305 306 306 306 306 306 306 305 304 303 303 302 302 301 301 300
272 273 273 274 276 277 279 280 282 283 285 287 289 291 292 293 295 297 298 299 300 301 301 302 303 304 305 305 305 306 306 306 306 306 306 305 304 303 303 303 302 302 301
270 272 273 273 275 276 278 279 281 283 285 287 289 290 291 293 295 297 298 299 300 301 302 303 304 304 305 305 305 306 306 306 306 306 306 305 305 304 304 304 303 303 302
269 271 273 273 274 275 277 279 281 283 285 287 289 290 292 294 295 296 298 299 300 301 302 303 304 304 305 306 306 306 306 307 307 307 307 306 305 305 304 304 304 304 304
269 270 272 273 274 275 277 279 281 283 285 287 289 290 292 294 295 296 298 299 300 301 302 303 304 305 305 306 306 306 307 307 307 307 307 307 306 306 306 306 306 305 305
268 270 272 273 274 275 277 279 281 283 285 287 288 290 292 294 295 296 298 299 300 301 302 303 303 304 305 306 306 307 307 307 307 308 308 308 307 307 307 307 307 307 306
268 270 271 272 274 275 277 279 281 283 285 288 289 291 292 294 295 297 298 299 300 301 302 303 303 304 305 306 306 307 308 308 308 308 308 308 308 308 308 308 308 307 307
268 270 270 272 273 275 277 280 282 284 286 288 289 291 292 294 295 297 298 299 300 302 303 303 304 305 306 306 307 308 308 309 309 309 308 308 309 309 309 308 309 308 308
268 269 270 272 273 275 277 279 281 283 285 287 289 291 292 294 295 297 298 299 301 302 303 304 305 306 307 307 308 308 309 309 309 309 309 309 310 310 309 309 309 309 309
267 268 270 272 274 276 278 280 282 284 286 287 289 291 293 295 296 297 298 299 301 302 304 305 306 307 307 308 308 309 309 309 309 309 310 310 310 310 310 310 309 309 309
266 268 270 272 275 277 278 280 282 284 286 288 289 291 293 295 296 297 299 300 302 303 304 305 306 307 307 308 308 309 309 310 311 311 311 311 311 310 310 310 310 309 309
266 267 269 272 274 276 278 280 282 284 286 287 289 291 293 294 296 298 299 300 302 303 304 306 306 307 308 308 309 309 310 311 311 311 311 311 311 311 310 310 310 310 310
266 267 270 272 274 276 278 281 283 285 286 287 289 291 293 295 296 298 299 300 302 303 304 306 306 307 308 309 310 310 311 311 311 311 311 312 311 311 311 310 310 310 311
268 269 270 272 274 276 278 280 283 285 286 288 290 292 293 295 297 298 299 301 302 303 305 306 307 308 309 310 310 311 311 311 312 312 312 312 312 312 312 311 311 311 311
268 269 270 272 275 277 279 281 283 285 287 288 290 292 294 296 297 299 300 301 303 304 305 307 308 309 310 310 311 311 312 312 313 313 314 314 313 313 313 312 312 312 312
267 269 270 273 276 278 280 282 283 284 286 288 290 292 294 295 297 299 300 302 303 304 306 307 308 310 310 311 312 312 313 313 314 315 315 315 315 315 314 313 313 312 311
268 271 273 275 277 278 280 281 283 284 286 288 290 292 294 295 297 299 301 302 303 304 306 307 309 310 311 312 312 313 313 314 315 315 315 315 316 315 314 314 313 312 311
270 272 274 275 276 278 280 282 283 285 287 289 291 293 294 296 298 300 301 302 303 304 306 308 309 310 311 312 312 313 314 314 315 315 315 315 316 316 315 315 314 312 311
271 273 275 276 278 280 281 282 283 285 287 289 291 293 295 296 298 300 301 302 303 304 306 308 309 310 311 312 312 313 314 315 315 316 316 315 315 315 315 314 313 312 312
271 272 274 276 277 279 280 282 284 286 288 290 292 293 295 297 298 299 301 302 303 304 306 308 309 310 310 311 312 313 314 315 316 316 316 316 316 315 315 314 313 312 312
270 271 273 276 277 279 281 283 285 287 289 291 293 294 296 297 299 300 301 302 303 305 307 308 309 309 310 311 312 313 314 315 316 317 317 316 315 314 314 313 312 312 312
269 271 273 276 278 280 283 285 287 288 290 292 294 295 296 298 299 300 301 302 304 305 306 307 308 309 310 311 312 313 314 315 316 317 317 317 315 314 314 313 312 312 313
270 271 274 276 279 282 284 286 287 289 291 293 294 295 297 298 298 300 301 302 304 305 306 307 308 309 310 311 312 312 313 314 315 316 316 316 315 314 314 313 312 312 312
270 273 275 277 279 282 284 286 287 290 292 294 294 296 297 297 298 300 301 303 304 305 307 307 308 309 310 311 312 312 313 314 314 315 315 315 314 313 314 313 312 311 311
271 273 276 277 280 282 284 286 289 291 293 294 295 296 296 297 299 300 301 303 305 305 307 308 309 309 311 312 312 313 313 313 314 314 315 314 314 313 313 312 311 310 310
Height
5729 5729 5729 5729 5728 5727 5726 5725 5724 5722 5721 5719 5716 5714 5711 5708 5705 5701 5698 5694 5690 5686 5681 5677 5672 5667 5662 5657 5651 5645 5639 5633 5629 5625 5618 5611 5605 5599 5592 5585 5579 5572 5565
5720 5719 5719 5719 5718 5718 5717 5716 5714 5713 5711 5709 5707 5704 5701 5698 5695 5692 5688 5684 5680 5676 5671 5666 5661 5656 5651 5645 5640 5634 5627 5621 5615 5611 5605 5598 5591 5584 5577 5570 5563 5556 5549
5710 5709 5709 5709 5709 5708 5707 5706 5705 5703 5702 5699 5697 5694 5691 5688 5685 5681 5678 5674 5669 5665 5660 5655 5650 5645 5640 5634 5628 5621 5615 5608 5602 5596 5591 5584 5577 5569 5562 5555 5547 5540 5532
5699 5699 5699 5699 5699 5698 5697 5696 5695 5693 5692 5689 5687 5684 5681 5678 5674 5671 5667 5663 5659 5654 5649 5644 5639 5633 5628 5622 5615 5609 5602 5595 5588 5582 5576 5569 5561 5554 5546 5539 5532 5523 5515
5688 5689 5689 5689 5688 5688 5687 5686 5684 5683 5681 5679 5676 5673 5670 5667 5664 5660 5656 5652 5647 5643 5638 5633 5627 5621 5615 5609 5602 5596 5589 5582 5575 5567 5561 5553 5546 5538 5530 5523 5515 5508 5499
5678 5678 5678 5678 5678 5677 5676 5675 5674 5672 5670 5668 5666 5663 5659 5656 5653 5649 5645 5640 5636 5631 5626 5621 5615 5609 5603 5596 5589 5582 5575 5567 5560 5553 5546 5538 5530 5522 5514 5506 5498 5491 5484
5667 5667 5667 5667 5667 5666 5665 5664 5663 5661 5659 5657 5654 5651 5648 5645 5641 5637 5633 5628 5624 5619 5614 5608 5603 5596 5590 5583 5576 5569 5561 5552 5545 5538 5530 5522 5514 5507 5499 5491 5481 5472 5464
5656 5656 5656 5656 5656 5655 5654 5653 5652 5650 5648 5646 5643 5640 5637 5633 5629 5625 5621 5616 5612 5607 5601 5596 5590 5583 5576 5570 5563 5555 5547 5539 5531 5523 5516 5507 5499 5490 5481 5473 5464 5456 5447
5644 5645 5645 5645 5644 5644 5643 5642 5641 5639 5637 5634 5631 5628 5625 5621 5617 5613 5609 5604 5600 5594 5589 5582 5576 5570 5563 5556 5549 5542 5534 5526 5517 5509 5500 5492 5483 5474 5465 5456 5447 5438 5431
5633 5633 5633 5633 5633 5632 5631 5630 5629 5627 5625 5622 5620 5617 5613 5610 5605 5601 5596 5592 5587 5582 5576 5570 5563 5556 5549 5542 5534 5527 5520 5512 5503 5495 5486 5477 5468 5459 5449 5439 5430 5422 5414
5621 5621 5622 5621 5621 5620 5619 5618 5617 5615 5613 5611 5608 5605 5601 5597 5593 5588 5584 5579 5574 5569 5563 5557 5550 5543 5536 5528 5520 5513 5505 5497 5489 5481 5472 5463 5454 5444 5434 5424 5415 5406 5398
5609 5609 5610 5609 5609 5608 5607 5606 5605 5603 5601 5598 5595 5592 5589 5585 5580 5576 5571 5566 5560 5555 5550 5543 5536 5529 5522 5514 5506 5498 5491 5482 5474 5466 5457 5448 5438 5429 5419 5410 5401 5392 5384
5597 5597 5598 5597 5597 5596 5595 5594 5592 5590 5588 5586 5583 5580 5576 5572 5568 5563 5558 5553 5547 5542 5536 5529 5523 5515 5508 5500 5492 5484 5476 5468 5459 5450 5441 5432 5422 5413 5404 5395 5387 5379 5371
5584 5585 5585 5585 5585 5584 5583 5581 5580 5578 5575 5573 5570 5567 5564 5559 5555 5550 5545 5540 5534 5528 5522 5516 5509 5501 5494 5486 5478 5470 5462 5453 5444 5435 5426 5417 5407 5398 5390 5382 5374 5367 5360
5572 5573 5573 5573 5572 5572 5571 5569 5567 5565 5563 5560 5557 5554 5550 5546 5542 5537 5532 5526 5521 5515 5509 5502 5495 5488 5480 5472 5464 5456 5447 5438 5429 5420 5411 5402 5393 5384 5376 5369 5362 5355 5349
5560 5560 5560 5560 5560 5559 5558 5556 5554 5552 5550 5547 5544 5541 5537 5533 5528 5523 5518 5513 5507 5501 5495 5488 5481 5474 5466 5458 5450 5441 5432 5423 5414 5405 5397 5388 5380 5372 5365 5358 5351 5345 5339
5548 5548 5548 5548 5548 5547 5546 5544 5542 5540 5537 5534 5531 5527 5524 5519 5515 5510 5505 5499 5493 5487 5481 5474 5467 5460 5452 5444 5435 5427 5418 5410 5401 5392 5384 5376 5368 5360 5353 5347 5341 5335 5330
5535 5536 5536 5536 5535 5534 5533 5531 5529 5527 5524 5521 5518 5514 5510 5506 5501 5497 5492 5486 5480 5474 5467 5460 5453 5446 5438 5430 5421 5413 5405 5397 5389 5380 5372 5365 5357 5350 5343 5337 5332 5326 5322
5523 5523 5523 5523 5522 5521 5519 5518 5516 5513 5511 5508 5505 5501 5497 5492 5488 5483 5478 5472 5466 5460 5453 5446 5439 5431 5424 5416 5408 5400 5392 5385 5377 5369 5361 5354 5347 5340 5334 5328 5323 5318 5314
5510 5510 5510 5509 5509 5508 5506 5504 5503 5500 5498 5495 5492 5488 5484 5479 5475 5469 5464 5458 5452 5446 5439 5432 5425 5417 5410 5402 5395 5388 5381 5373 5366 5358 5351 5344 5337 5331 5325 5320 5315 5310 5306
5497 5497 5497 5496 5496 5494 5493 5491 5489 5487 5484 5481 5478 5474 5470 5466 5461 5456 5450 5444 5438 5432 5425 5418 5411 5404 5397 5390 5383 5376 5369 5362 5355 5348 5341 5334 5328 5322 5317 5312 5307 5303 5299
5484 5484 5484 5483 5483 5482 5480 5478 5476 5473 5471 5468 5464 5460 5456 5451 5447 5442 5436 5430 5424 5417 5411 5404 5397 5390 5384 5377 5371 5365 5358 5351 5345 5338 5331 5325 5319 5314 5309 5304 5300 5297 5293
5471 5471 5471 5470 5470 5468 5466 5464 5462 5460 5457 5453 5450 5446 5442 5437 5432 5427 5421 5416 5410 5404 5397 5390 5384 5378 5371 5365 5359 5353 5347 5341 5335 5328 5322 5316 5311 5306 5302 5298 5294 5291 5287
5458 5458 5458 5457 5456 5455 5453 5451 5448 5446 5443 5439 5436 5432 5428 5423 5418 5413 5407 5402 5396 5390 5383 5377 5371 5366 5360 5354 5348 5342 5336 5331 5325 5319 5313 5308 5303 5299 5295 5291 5288 5285 5282
5445 5445 5444 5443 5443 5441 5439 5437 5435 5432 5429 5425 5422 5418 5413 5408 5403 5398 5393 5388 5382 5376 5371 5365 5359 5354 5349 5343 5337 5332 5326 5321 5315 5310 5305 5300 5295 5292 5288 5285 5282 5280 5277
5431 5431 5431 5430 5429 5428 5426 5424 5421 5418 5415 5411 5408 5404 5399 5394 5389 5385 5380 5374 5369 5364 5359 5353 5348 5343 5338 5332 5327 5322 5316 5311 5306 5301 5296 5292 5288 5285 5282 5279 5276 5274 5272